Location: Beadle
(51.4667°N, 109.0000°W)
Time: 04:08:23
(UTC+00:00)

Altair - Pass Details

Date: 01 June 2022
Orbit: 1501 x 1682 km, 47.2° (Epoch: 30 June)

Event Time Altitude Azimuth Distance (km) Brightness Sun altitude
Rises 02:44:32 0° 280° (W) 4,896 11.7 4.1°
Reaches altitude 10° 02:47:44 10° 276° (W) 3,923 11.0 3.6°
Maximum altitude 02:57:31 58° 202° (SSW) 1,919 8.1 2.4°
Drops below altitude 10° 03:07:19 10° 127° (SE) 3,929 9.0 1.1°
Sets 03:10:32 0° 124° (ESE) 4,904 9.4 0.7°
Enters shadow 03:10:43 -1° 124° (ESE) 4,963 9.4 0.7°
